map of CIX home
CIX - Airport
Location
City:  Chiclayo, Lambayeque, Perú
Name:Captaán FAP José Abelardo Quiñones Gonzáles International Airport
ICAO:SPHI
IATA:CIX

Details
Type:Airport (Aerodrome, Airfield)
Use:Public/Civil, International (customs port of entry)
Latitude:6°47'15"S (-6.787477)
Longitude:79°49'41"W (-79.828099)
Elevation:91 ft (28 m)
Variation:1.35°W (WMM2015 magnetic declination)
-0.16° annual change
Runways:1
Longest:8202 × 148 ft (2500 × 45 m), paved

Time
Time Zone:UTC-5
Local Time:

Weather
METAR:SPHI 201300Z 19007KT CAVOK 23/19 Q1012 RMK BIRD HAZARD RWY 19/01 PP000
TAF:SPHI 201100Z 2012/2112 18008KT CAVOK TX31/2019Z TN20/2111Z
BECMG 2017/2019 18018KT
FM210200 18012KT 9999 SCT020 BKN100

Related Locations
Nearby:
Farthest:VTSA: 12444 mi / 20027 km
Satun [Khoun Khan], 91, TH

Find:

   beyond  
but within

Other Information
Maps:
NOTAMs:
Links:
Sources:

  
  • flag of Perú
  • flag of Lambayeque
  

Sectional Chart

Flight Planning
at skyvector.com

Satellite Image

Google Maps Satellite view

 

Copyright © 2004-2019 Karl L. Swartz. All rights reserved.
The Great Circle Mapper name and logo are trademarks of the Great Circle Mapper.
All other trademarks mentioned herein belong to their respective owners.
Please see credits for attibutions and further copyright information.

  Follow gcmap on Facebook Follow gcmap on Twitter Follow gcmap on Google+ GCmap on LinkedIn

hCard Microformat

Geo Microformat